#timestamp,LO_Frequency,Hit,StdDev 
1613131215.4,286047002.3,N
1613131235.2,286047002.7,N
1613131255.1,286047000.5,N
1613131256.0,286047000.5,N
1613131275.8,286047000.3,N
1613131295.6,286047001.0,N
1613131315.5,286047000.3,N
1613131335.3,286047002.4,N
1613131355.2,286046999.9,N
1613131375.9,286047002.6,N
1613131395.7,286047002.5,N
1613131415.6,286047001.5,N
1613131435.4,286047001.5,N
1613131455.2,286047002.1,N
1613131475.1,286047002.8,N
1613131476.0,286047002.8,N
1613131495.8,286047002.8,N
1613131515.7,286046999.9,N
1613131535.5,286047000.5,N
1613131555.3,286047000.9,N
1613131575.2,286047001.0,N
1613131595.0,286047000.9,N
1613131595.9,286047000.9,N
1613131615.7,286046998.2,N
1613131635.6,286046998.2,N
1613131655.4,286046998.6,N
1613131675.3,286047001.2,N
1613131695.1,286046998.8,N
1613131696.0,286046998.8,N
1613131715.8,286046999.1,N
1613131735.7,286046999.2,N
1613131755.5,286046998.7,N
1613131775.3,286046998.5,N
1613131795.2,286046998.5,N
1613131815.0,286046999.0,N
1613131815.9,286046999.0,N
1613131835.8,286046999.4,N
1613131855.6,286046998.4,N
1613131875.4,286046998.2,N
1613131895.3,286046998.6,N
1613131915.1,286046999.1,N
1613131935.9,286046999.0,N
1613131955.7,286046999.3,N
1613131975.5,286046999.0,N
1613131995.4,286046999.2,N
1613132015.2,286046996.7,N
1613132035.0,286046999.0,N
1613132035.9,286046999.0,N
1613132055.8,286046998.8,N
1613132075.6,286046999.3,N
1613132095.5,286046999.0,N
1613132115.3,286046998.8,N
1613132135.1,286046998.7,N
1613132155.9,286046999.5,N
1613132175.7,286046999.0,N
1613132195.6,286046996.7,Y
1613132215.4,286046998.2,P
1613132235.2,286046998.4,P
1613132255.1,286046998.4,P
1613132256.0,286046998.4,Y
1613132275.8,286047000.2,P
1613132295.7,286047000.3,N
1613132315.5,286047000.5,N
1613132335.3,286047001.0,N
1613132355.2,286047000.3,N
1613132375.0,286047000.5,N
1613132375.9,286047000.5,N
1613132395.7,286047000.0,N
1613132415.6,286046999.9,N
1613132435.4,286047000.4,N
1613132455.3,286047000.5,N
1613132475.1,286046999.9,N
1613132495.8,286047000.2,N
1613132515.7,286046999.9,N
1613132535.5,286047000.1,N
1613132555.3,286047000.3,N
1613132575.2,286047001.0,N
1613132595.0,286047000.5,N
1613132595.9,286047000.5,N
1613132615.8,286047001.0,N
1613132635.6,286047000.7,N
1613132655.4,286047000.8,N
1613132675.3,286047001.0,N
1613132695.1,286047000.4,N
1613132715.9,286047000.7,N
1613132735.7,286047000.4,N
1613132755.5,286047000.5,N
1613132775.4,286047001.2,N
1613132795.2,286047000.9,N
1613132815.0,286046998.5,Y
1613132815.9,286046998.5,P
1613132835.8,286046998.2,N
1613132855.6,286046998.1,N
1613132875.5,286047001.1,N
1613132895.3,286046998.2,N
1613132915.1,286046998.3,N
1613132935.9,286047000.9,N
1613132955.7,286047001.0,N
1613132975.6,286046998.4,N
1613132995.4,286047000.8,N
1613133015.2,286047000.7,N
1613133035.1,286047001.0,N
1613133036.0,286047001.0,N
1613133055.8,286046998.1,N
1613133075.6,286047001.0,N
1613133095.5,286047000.0,N
1613133115.3,286046998.1,N
1613133135.2,286046998.5,N
1613133155.9,286046998.5,N
1613133175.7,286047001.1,N
1613133195.6,286047000.8,N
1613133215.4,286046998.5,N
1613133235.2,286046998.7,N
1613133255.1,286046998.8,N
1613133256.0,286046998.8,N
1613133275.8,286046999.0,N
1613133295.7,286046998.9,N
1613133315.5,286046996.5,N
1613133335.3,286046999.1,N
1613133355.2,286046997.2,N
1613133375.0,286046996.6,N
1613133375.9,286046996.6,N
1613133395.7,286046999.4,N
1613133415.6,286046996.5,N
1613133435.4,286046998.9,N
1613133455.3,286046999.1,N
1613133475.1,286046999.3,N
1613133476.0,286046999.3,N
1613133495.8,286046998.4,N
1613133515.7,286046998.5,N
1613133535.5,286046998.4,N
1613133555.4,286046998.9,N
1613133575.2,286046998.9,N
1613133595.0,286046999.4,N
1613133595.9,286046999.4,N
1613133615.8,286046999.1,N
1613133635.6,286046998.7,N
1613133655.4,286046999.4,N
1613133675.3,286046999.5,N
1613133695.1,286046999.1,N
1613133715.9,286046998.8,N
1613133735.7,286046998.6,N
1613133755.5,286046999.4,N
1613133775.4,286046998.9,N
1613133795.2,286046999.0,N
1613133815.1,286046999.3,N
1613133816.0,286046999.3,N
1613133835.8,286046999.2,N
1613133855.6,286046999.0,N
1613133875.5,286046996.9,Y
1613133895.3,286046999.4,P
1613133915.1,286046999.4,N
1613133935.9,286046999.0,P
1613133955.7,286046998.6,Y
1613133975.6,286047000.9,P
1613133995.4,286047000.5,N
1613134015.2,286047000.0,N
1613134035.1,286047002.7,Y
1613134036.0,286047002.7,P
1613134055.8,286047000.2,N
1613134075.7,286047000.1,N
1613134095.5,286046999.8,N
1613134115.3,286046999.9,N
1613134135.2,286047002.1,N
1613134155.0,286047002.8,N
1613134155.9,286047002.8,N
1613134175.8,286047002.5,N
1613134195.6,286047002.3,N
1613134215.4,286047001.9,N
1613134235.3,286047002.0,N
1613134255.1,286047002.6,N
1613134275.8,286046999.7,N
1613134295.7,286047000.3,N
1613134315.5,286047000.0,N
1613134335.4,286047000.3,N
1613134355.2,286047000.6,N
1613134375.0,286047000.6,N
1613134375.9,286047000.6,N
1613134395.8,286047000.5,N
1613134415.6,286047000.5,N
1613134435.4,286047000.5,N
1613134455.3,286047000.4,N
1613134475.1,286047000.6,N
1613134495.9,286047000.7,N
1613134515.7,286047001.1,N
1613134535.5,286047000.5,N
1613134555.4,286047000.7,N
1613134575.2,286047000.6,N
1613134595.0,286046999.8,N
1613134595.9,286046999.8,N
1613134615.8,286047002.5,N
1613134635.6,286047002.8,N
1613134655.5,286047002.4,N
1613134675.3,286047002.5,N
1613134695.1,286047001.6,N
1613134715.9,286047011.9,Y
1613134735.7,286047002.8,P
1613134755.6,286047002.7,P
1613134775.4,286047002.8,P
1613134795.2,286047001.8,N
